User: anonymous   Login
Location: PACMO
(41.3967°N, 90.3760°W)
Time: 03:05:52
(UTC-05:00)
Language:

BREEZE-M DEB (TANK) - Orbit

View from above orbital plane
View from above orbital plane
View from above satellite
View from above satellite

Ground track
Ground track

The orbit data is extracted from the following two-line orbital elements,

1 31863U 07032B   17081.85915932 +.00000181 +00000-0 +17373-3 0  9996
2 31863 045.9712 048.2186 4982631 295.8176 021.6120 05.52086313194752
Epoch (UTC): 22 March 2017 20:37:11
Eccentricity: 0.4982631
inclination: 45.9712°
perigee height: 407 km
apogee height: 13882 km
right ascension of ascending node: 48.2186°
argument of perigee: 295.8176°
revolutions per day: 5.52086313
mean anomaly at epoch: 21.6120°
orbit number at epoch: 19475

The dashed part of the orbit path shows where the satellite is in the earth's shadow,  

DLR